Regional Weather Roundup
Issued by NWS

Home | Current Version | Previous Version | Text Only | Print | Product List | Glossary On
Versions: 1 2 3 4 5 6 7 8 9 10 11 12 13 14 15 16 17 18 19 20 21 22 23 24 25 26 27 28 29 30 31 32 33 34 35 36 37 38 39 40 41 42 43 44 45 46 47 48 49 50
000
ASUS43 KLOT 020208
RWRIL

ILLINOIS REGIONAL WEATHER ROUNDUP
NATIONAL WEATHER SERVICE CHICAGO/ROMEOVILLE IL
900 PM CDT WED JUL 01 2015

NOTE: "FAIR" INDICATES FEW OR NO CLOUDS BELOW 12,000 FEET WITH NO
SIGNIFICANT WEATHER AND/OR OBSTRUCTIONS TO VISIBILITY.

* THESE STATIONS ARE NOT UNDER NWS QUALITY CONTROL. THEY ALSO MAY NOT
  REPORT WEATHER SUCH AS PRECIPITATION OR FOG.

ILZ001-002-007-009-015-016-024-020300-
NORTHWEST ILLINOIS

CITY           SKY/WX    TMP DP  RH WIND       PRES   REMARKS
MOLINE         MOCLDY    69  55  60 NE9       29.93F
STERLING*      CLOUDY    64  55  72 N3        29.96S
SAVANNA*       CLOUDY    64  53  65 N6        29.97R
$$

ILZ003-004-008-010-011-017-018-020300-
NORTH CENTRAL ILLINOIS

CITY           SKY/WX    TMP DP  RH WIND       PRES   REMARKS
ROCKFORD       CLOUDY    63  53  70 E10       30.00R
FREEPORT*      CLOUDY    62  55  79 NE5       29.99S
ROCHELLE*      CLOUDY    62  55  78 E9        29.98S
DE KALB*       CLOUDY    57  51  80 E8        30.00S
PERU*          CLOUDY    66  58  73 E13       29.95S
$$

ILZ005-006-012>014-019>023-020300-
NORTHEAST ILLINOIS

CITY           SKY/WX    TMP DP  RH WIND       PRES   REMARKS
CHICAGO-OHARE  CLOUDY    56  50  80 NE8       30.00R
CHICAGO-MIDWAY CLOUDY    59  51  75 N8        29.99S
AURORA         CLOUDY    60  50  69 NE9       29.99S
LANSING*       CLOUDY    57  50  76 NE6       29.98F
JOLIET*        LGT RAIN  60  54  80 NE9       29.99S
WAUKEGAN       CLOUDY    54  50  86 N6        30.00R
DUPAGE AIRPORT CLOUDY    57  50  77 NE9       29.99R
KANKAKEE*      MOCLDY    60  53  78 NE10      29.97S
WHEELING       CLOUDY    55  50  83 NE3       30.02R
MORRIS*        LGT RAIN  61  52  73 NE9       29.95F
ROMEOVILLE*    LGT RAIN  58  52  81 NE8       29.99S
NORTHERLY ISL    N/A     56  51  84 N12         N/A
$$

LMZ740>746-020300-
SOUTHERN LAKE MICHIGAN

STATION/POSITION SKY/WX   TEMP    WIND        PRES    VSBY  WAVE
                          AIR SEA DIR/SP/G                  HT/PER
                          (F)     (DEG/KT/KT) (MB)    (MI)  (FT/S)
HARRISON CRIB              55      30/  8/ 10   N/A
BURNHAM HARBOR             55      10/  9/ 12   N/A
CALUMET HARBOR             58     360/  8/ 12   N/A
BURNS HARBOR               60      40/ 12/ 15 1015.6F
MICHIGAN CITY              58      10/ 11/ 14   N/A
MICHIGAN CITY 6N           59 65   20/ 10/ 14   N/A           3/ 5
ST. JOSEPH                 59 63                N/A           3/ 4
$$

ILZ025>027-034>036-040-047-049-050-058-095>099-020300-
WEST-CENTRAL ILLINOIS

CITY           SKY/WX    TMP DP  RH WIND       PRES   REMARKS
QUINCY         MOCLDY    73  67  81 E12       29.88R
GALESBURG*     CLOUDY    69  61  75 NE5       29.93S
MACOMB*        LGT RAIN  69  65  88 NE9       29.93S
JACKSONVILLE*  CLOUDY    73  70  88 E7        29.88F
PITTSFIELD*    MOCLDY    73  70  92 NE8       29.89R FOG
$$

ILZ028>032-037-038-041>044-048-051>054-059>061-020300-
CENTRAL ILLINOIS

CITY           SKY/WX    TMP DP  RH WIND       PRES   REMARKS
PONTIAC        MOCLDY    66  60  81 NE10G16   29.95S
BLOOMINGTON    PTCLDY    67  63  87 NE10      29.94F
DECATUR        CLOUDY    71  66  84 NE6       29.91S
PEORIA         MOCLDY    72  61  68 NE7       29.92S
LACON*         MOCLDY    67  58  73 NE5       29.93R
LINCOLN*       LGT RAIN  71  65  82 E6        29.92R
SPRINGFIELD    MOCLDY    74  67  78 NE8       29.90R
TAYLORVILLE    CLOUDY    72  66  83 E7        29.90R
$$

ILZ033-039-045-046-055>057-062-063-020300-
EAST-CENTRAL ILLINOIS

CITY           SKY/WX    TMP DP  RH WIND       PRES   REMARKS
CHAMPAIGN      MOCLDY    70  63  78 NE9       29.93R
DANVILLE*      MOCLDY    65  59  79 NE9       29.91S
RANTOUL*       PTCLDY    68  61  77 NE9       29.94R
MATTOON        CLOUDY    72  66  81 NE8       29.90R
PARIS*         PTCLDY    71  66  86 NE7       29.91S
$$

ILZ079-100>102-020300-
SOUTHWEST ILLINOIS

CITY           SKY/WX    TMP DP  RH WIND       PRES   REMARKS
ALTON          LGT RAIN  75  75 100 SW9       29.89R
BELLEVILLE     TSTM      73  73 100 S8        29.86F
CAHOKIA*       MOCLDY    72  69  90 SE9       29.85F
SPARTA*        CLOUDY    75  72  89 S3        29.88S
$$

ILZ064>066-069>071-074>076-080>082-084>086-088>090-092>094-020300-
SOUTH-CENTRAL ILLINOIS

CITY           SKY/WX    TMP DP  RH WIND       PRES   REMARKS
CARBONDALE     PTCLDY    76  71  85 S5        29.89R
CAIRO*         PTCLDY    76  70  81 S3        29.89F
EFFINGHAM*     RAIN      71  68  90 E7        29.91S
MARION         PTCLDY    75  73  94 CALM      29.90S
MT. VERNON     MOCLDY    75  66  73 CALM      29.89R
CENTRALIA*     PTCLDY    75  69  81 S3        29.89R
SALEM*         PTCLDY    76  71  83 CALM      29.88S
METROPOLIS*    PTCLDY    76  71  84 CALM      29.92S
$$

ILZ067-068-072-073-078-083-087-091-020300-
SOUTHEAST ILLINOIS

CITY           SKY/WX    TMP DP  RH WIND       PRES   REMARKS
LAWRENCEVILLE  LGT RAIN  71  68  90 E6        29.88F
FLORA*         MOCLDY    74  69  85 NE3       29.89R THUNDER
FAIRFIELD*     CLOUDY    74  70  87 NE3       29.87R
HARRISBURG*    PTCLDY    76  71  82 S5        29.90S
ROBINSON*      MOCLDY    73  70  88 E3        29.89S
CARMI*         MOCLDY    76  66  70 S7        29.88S
$$

ABBREVIATIONS USED IN REMARKS
   TC - TEMPERATURE IN CELSIUS
  WCI - WIND CHILL INDEX
   HX - HEAT INDEX
  VSB - VISIBILITY
$$




USA.gov is the U.S. government's official web portal to all federal, state and local government web resources and services.